Temp
99 93 90 95 97 95 93 90 87 92 96 92 91 91 93 96 97 96 96 96 97 98 100 101 99 101 102 101 99 96 93 93 92 92 87 83 86 82 86 86 86 85 84 82
95 88 96 97 95 93 93 90 88 92 95 94 92 91 97 97 96 98 97 97 98 99 99 99 97 97 98 99 99 97 94 92 91 93 92 88 83 89 88 88 86 87 83 81
90 94 99 95 94 91 93 91 89 87 93 96 92 88 91 94 96 99 101 101 101 99 97 97 94 94 99 98 98 97 95 93 92 91 88 88 89 88 86 90 90 90 88 84
93 100 94 93 92 94 85 95 92 90 89 77 94 77 88 91 92 93 98 100 101 101 98 99 93 98 98 97 99 99 96 92 93 91 90 87 84 80 87 90 91 88 89 87
90 93 91 90 92 95 88 96 93 90 89 89 87 84 86 92 87 90 96 98 102 103 98 99 97 96 99 99 99 99 95 92 92 92 88 90 87 91 92 92 84 88 87 87
95 102 98 96 98 96 97 93 92 92 89 79 86 86 69 61 88 89 92 95 100 103 100 100 100 101 101 102 100 99 93 90 91 90 89 87 85 87 87 84 84 86 83 83
90 93 98 99 91 97 95 91 78 75 74 75 77 85 77 76 94 95 92 94 98 102 100 99 98 99 98 98 98 99 93 89 89 90 90 88 87 86 85 87 91 89 84 87
81 79 92 97 93 90 91 92 78 63 72 77 89 79 78 90 96 96 96 96 97 98 99 98 97 97 97 97 96 95 92 90 90 89 88 88 87 90 91 91 91 91 92 87
83 83 97 98 99 97 87 86 97 86 88 81 81 70 90 95 93 93 94 94 94 96 97 97 97 98 95 94 94 94 91 89 89 89 88 88 87 86 87 86 87 91 90 92
92 81 94 96 98 98 94 97 85 87 71 69 78 74 79 84 88 90 91 92 94 95 94 94 94 95 97 97 95 94 92 89 90 93 92 92 91 90 87 87 86 85 86 87
97 91 88 94 89 88 90 88 90 91 85 76 70 73 86 89 92 91 92 92 93 94 94 94 94 94 94 96 96 96 93 92 93 93 92 91 91 92 91 91 90 89 89 89
97 93 82 86 96 99 97 92 92 82 74 65 70 70 92 91 95 95 93 93 95 95 95 94 93 92 91 90 91 92 91 90 92 92 92 93 93 92 92 91 91 92 90 91
95 89 79 80 90 95 90 93 95 85 89 63 65 73 93 93 93 94 92 92 90 92 92 88 90 87 87 88 86 89 89 88 89 88 90 90 89 90 90 90 91 91 89 89
91 93 85 74 77 90 84 89 92 92 82 79 63 74 85 88 87 90 90 90 90 89 79 83 82 81 84 84 81 84 86 87 88 85 84 84 84 83 85 85 86 87 87 86
95 84 85 86 87 84 72 85 87 86 87 81 84 83 84 86 87 87 89 88 85 85 83 82 82 81 80 80 80 82 84 84 84 81 82 81 80 81 81 81 82 83 84 83
96 84 88 84 89 90 85 88 87 87 86 86 86 83 88 86 86 84 85 84 82 82 81 79 78 79 83 83 83 82 81 81 81 79 79 79 78 78 78 77 77 78 80 81
91 88 83 78 87 86 80 87 86 86 87 86 81 81 85 82 81 81 81 82 81 80 81 82 83 84 83 86 84 80 80 81 78 77 75 73 72 72 72 72 72 72 73 74
89 87 86 80 82 69 85 93 91 86 87 89 87 85 86 84 84 84 85 83 81 80 80 81 83 83 85 86 84 80 80 76 74 74 72 72 71 70 71 71 72 72 73 72
95 90 82 73 66 80 82 86 86 83 83 88 87 86 86 86 84 81 84 84 82 81 82 82 83 83 81 80 79 77 76 75 73 71 70 70 70 69 69 69 68 69 69 70
97 95 85 81 71 65 82 89 94 91 77 90 90 86 85 85 77 77 83 83 82 83 82 81 82 83 80 77 78 75 73 72 69 68 68 68 68 66 65 65 65 66 66 66
84 83 79 75 77 77 88 91 94 74 75 89 91 89 86 82 82 82 84 81 82 81 81 80 81 79 77 77 75 72 72 68 67 67 66 66 65 65 67 67 67 65 64 64
81 78 77 79 52 66 92 89 81 83 90 91 90 89 87 83 83 83 80 79 79 77 77 79 78 76 77 76 74 71 69 67 64 64 64 64 64 64 65 64 63 62 61 61
81 84 77 72 77 87 93 90 91 93 89 89 88 88 86 84 82 81 79 77 76 74 76 78 77 75 75 74 72 70 67 64 65 63 62 63 64 65 65 63 62 59 59 59
84 87 85 80 83 86 86 89 90 92 89 90 89 87 86 82 81 79 78 77 75 75 74 75 75 73 71 72 72 72 69 65 64 63 62 65 64 63 63 65 63 60 57 57
88 86 83 79 81 84 85 87 89 88 89 87 87 86 84 82 79 78 76 74 74 73 74 74 72 71 70 71 71 73 69 64 65 64 68 66 65 63 63 63 62 61 60 55
91 86 83 82 84 86 82 87 88 85 84 84 82 80 81 80 77 77 74 74 74 72 73 71 71 71 70 70 70 70 71 67 66 65 67 64 65 66 64 62 61 58 54 51
MSLP
1000.31 999.58 998.03 997.22 997.22 997.85 997.53 997.63 997.68 998.10 998.75 999.10 999.05 999.18 1000.25 1001.16 1001.73 1002.14 1003.01 1003.90 1004.31 1004.68 1005.41 1006.00 1006.63 1006.94 1007.32 1007.85 1008.75 1009.66 1010.44 1011.03 1011.79 1012.14 1012.37 1012.74 1012.86 1012.80 1013.01 1013.20 1013.20 1013.70 1013.87 1014.25
999.38 998.61 997.86 998.15 998.43 998.29 997.87 997.46 997.35 998.38 998.79 998.81 998.67 998.79 998.97 1000.01 1000.93 1001.13 1001.72 1002.64 1003.33 1003.75 1004.95 1005.73 1006.67 1007.32 1007.40 1007.55 1008.17 1009.04 1009.88 1010.62 1011.26 1011.51 1011.56 1011.87 1012.42 1012.49 1012.68 1012.67 1012.74 1012.87 1013.27 1013.61
998.43 998.04 998.15 998.56 998.19 998.23 997.56 996.94 997.24 998.08 998.45 998.28 998.36 998.23 998.80 1000.02 1000.42 1000.69 1001.00 1001.62 1002.31 1003.26 1004.62 1005.55 1006.78 1007.44 1007.22 1007.45 1007.96 1008.59 1009.36 1010.04 1010.61 1011.10 1011.35 1011.69 1012.03 1012.01 1012.24 1011.81 1011.95 1011.99 1012.44 1012.87
998.33 997.64 998.06 998.26 997.84 997.60 997.42 997.52 997.82 998.03 997.70 997.75 998.11 997.62 998.13 999.53 999.92 1000.70 1000.71 1001.03 1001.36 1002.62 1004.46 1005.21 1006.47 1006.63 1007.14 1007.69 1007.91 1008.09 1008.92 1009.68 1010.13 1010.68 1010.91 1011.06 1011.28 1011.74 1011.51 1011.40 1011.51 1011.57 1011.61 1012.00
997.72 997.55 998.13 997.94 997.52 997.71 997.93 998.13 997.90 998.12 997.74 997.05 997.55 997.40 998.30 999.28 999.93 1000.43 1000.46 1000.90 1001.09 1001.91 1003.93 1004.60 1005.76 1006.67 1006.81 1007.35 1007.71 1008.00 1008.72 1009.55 1009.97 1010.18 1011.05 1010.86 1011.04 1010.66 1010.79 1010.70 1010.90 1011.15 1011.55 1011.61
997.67 997.68 997.73 997.92 997.67 998.28 998.22 998.11 998.18 998.06 997.55 996.92 997.15 997.88 1001.11 1002.06 999.43 1000.76 1001.46 1001.46 1001.21 1001.16 1003.10 1004.34 1005.38 1005.99 1006.31 1006.64 1007.35 1007.81 1008.85 1009.57 1009.97 1010.40 1010.71 1010.96 1010.88 1010.70 1010.60 1010.83 1010.64 1010.74 1010.96 1011.25
997.68 996.91 997.65 997.87 998.19 998.02 998.20 997.25 996.64 996.87 997.07 996.85 998.93 998.32 1000.53 1000.47 999.96 1000.40 1001.38 1001.64 1001.57 1001.44 1002.77 1004.18 1004.89 1005.57 1006.15 1006.64 1007.23 1007.70 1008.80 1009.59 1010.00 1010.22 1010.37 1010.54 1010.64 1010.74 1010.59 1010.43 1009.96 1009.84 1010.38 1010.54
997.10 996.78 997.41 998.00 997.70 996.96 997.27 996.48 996.43 997.15 995.99 996.38 997.49 998.33 1001.21 1000.44 1000.38 1001.07 1001.50 1001.92 1002.36 1002.62 1003.30 1004.19 1005.13 1005.79 1006.38 1006.95 1007.61 1008.20 1008.97 1009.49 1009.94 1010.23 1010.44 1010.55 1010.60 1010.36 1010.20 1009.95 1009.96 1009.67 1009.08 1009.49
996.03 995.99 996.84 997.12 997.34 997.40 997.18 996.62 995.89 995.85 995.81 996.88 998.41 1000.00 999.65 999.93 1000.62 1001.27 1001.65 1002.34 1002.79 1003.34 1004.07 1004.78 1005.56 1006.01 1006.98 1007.47 1008.13 1008.79 1009.41 1009.81 1010.15 1010.37 1010.60 1010.61 1010.61 1010.55 1010.36 1010.38 1010.33 1009.85 1009.79 1009.47
995.44 995.80 996.01 996.83 997.07 997.13 996.89 996.90 996.03 996.19 996.41 996.82 997.74 999.28 998.60 999.32 1000.02 1000.99 1001.76 1002.57 1003.25 1004.12 1005.19 1005.99 1006.59 1006.96 1007.23 1007.78 1008.68 1009.14 1009.78 1010.14 1010.28 1010.03 1010.17 1009.93 1010.02 1010.16 1010.38 1010.36 1010.28 1010.23 1010.03 1009.84
995.02 995.24 995.68 996.22 996.81 996.53 996.73 996.69 996.50 996.37 997.09 997.30 998.97 1000.01 1000.57 998.15 999.95 1000.51 1001.85 1003.08 1004.01 1004.80 1005.69 1006.49 1007.26 1007.95 1008.13 1008.40 1008.81 1009.14 1009.74 1010.03 1009.91 1009.94 1010.17 1010.10 1009.90 1009.72 1009.79 1009.63 1009.62 1009.61 1009.46 1009.36
995.30 994.94 995.56 996.05 996.37 996.29 995.93 995.99 996.17 996.28 998.03 1000.06 1000.82 1001.00 1000.95 1000.86 1000.12 1000.77 1002.10 1003.46 1004.25 1004.92 1005.84 1006.84 1007.81 1008.51 1009.07 1009.52 1009.86 1010.15 1010.38 1010.52 1010.19 1010.26 1010.03 1009.54 1009.49 1009.48 1009.41 1009.44 1009.36 1009.21 1009.11 1008.89
995.50 994.90 994.93 995.66 996.42 996.48 996.12 995.75 995.53 997.13 998.25 1000.36 1000.25 1000.76 1000.74 1001.16 1001.31 1002.00 1002.79 1004.20 1005.65 1005.97 1006.62 1007.65 1008.56 1009.58 1010.00 1010.22 1010.66 1010.86 1011.19 1011.19 1011.04 1010.94 1010.44 1010.22 1010.12 1009.72 1009.42 1009.27 1009.08 1009.09 1009.13 1008.87
996.16 994.86 994.74 996.11 996.59 995.86 996.33 996.04 996.72 996.42 996.92 998.26 1001.92 1000.45 1001.66 1001.79 1002.52 1002.98 1003.98 1005.22 1006.32 1007.06 1008.71 1009.52 1010.69 1011.20 1011.33 1011.60 1011.47 1011.67 1011.83 1011.83 1011.56 1011.75 1011.49 1011.18 1011.04 1010.88 1010.50 1010.16 1009.69 1009.29 1009.08 1009.03
996.41 995.32 995.76 997.06 997.59 997.46 998.40 997.16 997.37 997.65 997.85 998.44 998.82 999.98 1001.81 1002.56 1003.35 1004.36 1005.27 1006.23 1007.66 1008.44 1009.77 1010.59 1011.10 1011.44 1011.91 1011.84 1012.23 1011.96 1012.27 1012.38 1012.39 1012.35 1011.99 1011.68 1011.69 1011.43 1011.13 1010.75 1010.31 1009.87 1009.51 1009.37
996.33 995.73 995.77 996.40 997.21 997.13 997.72 997.41 997.85 998.27 998.97 999.56 1000.02 1000.73 1002.65 1003.93 1004.88 1005.72 1006.48 1007.54 1008.66 1009.54 1010.48 1011.40 1011.95 1011.90 1011.80 1012.01 1012.23 1012.50 1012.87 1012.99 1012.87 1012.73 1012.33 1012.16 1011.99 1011.81 1011.52 1011.36 1011.08 1010.66 1010.12 1009.56
995.74 995.57 996.20 996.41 997.01 997.05 997.10 996.89 997.81 998.67 999.61 1000.32 1000.64 1002.61 1004.05 1004.83 1005.81 1006.89 1007.81 1008.64 1009.32 1010.24 1010.80 1011.20 1011.37 1011.58 1011.94 1011.85 1012.17 1012.85 1013.12 1013.07 1013.02 1012.98 1012.99 1012.92 1012.91 1012.64 1012.45 1012.18 1011.73 1011.17 1010.65 1010.07
995.57 995.78 996.40 996.39 997.29 997.48 997.58 998.14 998.72 999.44 1000.07 1000.89 1001.64 1003.10 1004.14 1005.38 1006.64 1007.60 1008.34 1009.12 1010.01 1010.81 1011.30 1011.63 1011.78 1011.97 1011.98 1012.23 1012.67 1013.16 1013.26 1013.44 1013.58 1013.40 1013.50 1013.40 1013.35 1013.19 1012.85 1012.27 1011.78 1011.37 1010.88 1010.21
995.15 995.75 996.16 997.20 999.60 997.94 998.56 998.82 999.20 999.66 1000.17 1001.38 1001.87 1003.54 1004.77 1005.98 1007.14 1008.18 1009.11 1009.84 1010.57 1011.10 1011.50 1011.87 1012.10 1012.34 1012.71 1013.11 1013.38 1013.51 1013.54 1013.66 1013.72 1013.91 1013.91 1013.83 1013.50 1013.07 1012.69 1012.35 1012.04 1011.64 1011.14 1010.42
994.55 995.40 996.36 997.15 997.43 998.08 997.51 999.02 999.52 1000.32 1000.32 1001.56 1002.50 1003.80 1005.06 1006.16 1006.59 1007.88 1009.69 1010.36 1010.90 1011.47 1011.90 1012.32 1012.31 1012.31 1013.01 1013.51 1013.70 1013.78 1013.99 1014.09 1014.30 1014.37 1014.28 1014.05 1013.79 1013.48 1012.96 1012.47 1012.07 1011.68 1011.39 1010.78
995.00 995.81 996.63 997.48 997.88 998.88 999.08 999.67 999.82 1000.42 1002.02 1002.28 1002.87 1004.00 1005.23 1006.26 1007.58 1008.98 1010.18 1010.97 1011.59 1012.04 1012.28 1012.74 1012.66 1013.03 1013.50 1013.96 1014.19 1014.22 1014.24 1014.49 1014.92 1014.83 1014.62 1014.09 1013.77 1013.44 1012.75 1012.33 1012.02 1011.70 1011.17 1010.54
995.54 996.41 996.87 997.90 1000.83 1000.04 999.79 1000.19 1000.13 1001.74 1002.25 1002.67 1003.50 1004.53 1005.65 1007.45 1008.55 1009.65 1010.76 1011.45 1012.01 1012.53 1012.87 1012.94 1013.10 1013.55 1013.96 1014.33 1014.45 1014.43 1014.58 1015.35 1015.37 1014.99 1014.58 1014.23 1013.89 1013.54 1012.91 1012.36 1012.05 1011.79 1011.33 1010.62
996.14 996.89 998.00 999.97 999.53 1000.24 1000.47 1000.28 1001.59 1001.98 1002.85 1003.56 1004.38 1005.49 1006.70 1007.86 1009.02 1010.04 1011.02 1011.93 1012.77 1013.39 1013.33 1013.55 1013.80 1013.99 1014.36 1014.66 1014.84 1014.69 1015.32 1015.70 1015.38 1015.04 1014.58 1014.10 1013.64 1013.07 1012.79 1012.32 1011.92 1011.65 1011.26 1010.72
997.52 998.09 998.32 1000.02 1001.52 1001.15 1001.67 1002.11 1002.67 1003.04 1003.88 1004.66 1005.63 1006.59 1007.53 1008.42 1009.60 1010.63 1011.53 1012.29 1013.20 1013.59 1014.00 1014.26 1014.34 1014.48 1014.75 1014.99 1014.97 1014.80 1015.31 1015.63 1015.25 1014.78 1014.37 1013.84 1013.44 1013.17 1012.76 1012.30 1011.85 1011.64 1011.36 1010.91
997.29 998.59 999.08 1000.52 1001.58 1001.91 1002.57 1003.07 1003.60 1004.38 1005.07 1005.90 1006.87 1007.60 1008.42 1009.33 1010.33 1011.13 1012.27 1013.13 1013.79 1014.24 1014.53 1014.79 1014.98 1015.06 1015.17 1015.28 1015.12 1014.78 1015.27 1015.60 1015.08 1014.75 1013.99 1013.72 1013.56 1013.12 1012.68 1012.46 1012.16 1011.78 1011.58 1011.52
997.69 998.22 999.17 999.28 1000.68 1001.36 1002.84 1003.85 1004.71 1005.44 1006.27 1007.17 1008.03 1008.87 1009.63 1010.26 1011.19 1012.02 1012.99 1013.76 1014.25 1014.72 1014.97 1015.18 1015.34 1015.42 1015.51 1015.47 1015.27 1015.26 1015.13 1015.28 1014.90 1014.55 1014.14 1014.10 1013.73 1013.07 1012.84 1012.51 1012.23 1011.97 1011.59 1011.17
Wind_Speed
18 16 17 16 5 8 7 6 3 6 6 6 5 11 14 15 13 16 16 15 15 17 13 14 12 11 10 11 10 12 11 10 9 9 9 7 10 7 6 7 8 11 10 9
20 18 14 4 2 6 8 8 5 5 5 10 10 8 10 14 11 12 16 17 16 17 15 12 10 9 8 8 10 11 11 12 9 9 8 8 6 7 6 7 7 11 10 9
23 17 7 8 11 12 14 10 8 11 9 11 5 14 12 8 5 9 13 19 18 17 16 14 12 11 8 8 9 9 9 10 11 12 7 4 6 5 5 7 7 9 10 10
23 17 9 10 15 9 6 1 2 5 12 8 9 3 14 14 12 9 13 16 19 17 17 15 7 10 8 6 8 8 8 8 10 11 10 10 8 7 6 7 8 5 8 10
18 20 14 14 13 3 4 7 5 4 13 11 11 9 9 15 17 10 11 14 14 18 17 17 10 8 4 4 6 5 6 6 6 6 9 8 10 8 8 6 7 7 9 11
21 22 12 17 9 6 6 8 7 14 14 12 5 9 11 15 15 12 7 7 10 17 20 16 15 11 7 4 3 5 7 4 5 6 7 9 10 7 7 4 7 7 6 6
19 20 11 12 9 11 12 19 11 10 8 3 9 9 9 14 9 11 11 8 4 3 17 13 13 11 4 3 4 6 5 4 3 5 6 7 7 7 9 7 8 8 5 8
18 20 21 15 19 12 18 20 9 10 10 6 8 2 6 8 12 11 11 10 10 8 10 9 7 8 8 7 6 6 6 4 4 3 3 3 4 6 5 7 6 7 6 6
19 20 22 20 20 15 8 15 14 13 9 7 9 10 23 16 13 12 12 13 12 13 12 11 7 9 11 9 8 9 7 5 2 4 2 3 3 5 7 7 6 6 6 8
15 16 21 22 6 12 13 14 9 10 13 7 5 8 10 14 15 13 14 13 11 13 9 10 9 9 11 11 9 8 6 5 1 3 4 3 1 1 4 6 7 8 10 10
13 16 12 16 15 19 14 13 12 11 11 2 12 7 11 7 16 13 13 13 12 11 12 11 12 10 9 9 7 7 5 4 1 2 3 2 3 3 3 5 5 7 8 8
19 16 14 16 24 25 18 16 20 9 5 12 10 4 2 5 2 12 14 12 10 10 13 12 11 9 9 7 7 7 6 5 6 5 5 5 3 2 4 5 7 6 7 5
16 11 11 11 11 10 14 7 10 11 12 16 18 8 9 7 10 7 13 13 7 6 11 12 13 11 9 10 8 9 7 8 8 10 12 11 11 11 10 9 8 8 8 8
15 20 11 6 12 18 20 9 8 14 3 4 13 11 12 11 10 8 10 11 9 6 16 10 9 6 7 8 7 6 7 9 10 10 10 9 10 11 11 13 14 13 10 10
18 17 14 11 10 18 12 18 2 8 13 11 14 10 11 10 9 8 9 11 8 9 10 8 8 6 5 4 6 7 9 10 10 10 10 10 10 10 11 12 12 13 12 13
20 11 7 8 12 13 20 2 1 2 6 6 10 8 11 11 10 8 9 10 8 10 7 8 6 4 3 5 6 8 9 9 9 9 9 10 11 11 12 11 12 14 14 14
19 8 7 11 9 6 9 10 5 6 2 6 7 11 10 10 10 9 8 8 9 7 5 3 4 5 5 7 7 7 8 9 9 11 12 13 13 13 12 13 13 12 11 12
15 12 8 4 6 11 11 8 8 2 5 2 2 7 7 11 10 10 9 8 7 5 4 4 6 7 8 9 10 10 10 9 9 8 10 11 11 12 13 14 14 13 13 14
19 13 10 6 16 10 12 11 7 2 5 3 7 9 10 12 12 9 7 7 5 5 5 6 7 7 6 9 10 9 9 9 11 12 12 12 13 13 14 14 15 14 14 15
16 13 9 11 12 6 11 13 8 4 5 9 8 10 11 11 11 12 8 6 5 5 6 7 7 7 8 9 10 10 10 10 12 13 14 13 13 13 13 11 12 11 12 14
12 13 15 5 12 12 10 12 10 4 8 6 6 9 10 6 10 13 9 6 5 5 7 7 6 7 8 10 10 10 10 12 14 14 13 12 11 12 14 14 13 13 14 14
9 11 8 5 10 11 10 10 0 7 6 6 6 8 9 11 10 9 6 5 6 7 7 7 7 7 8 10 10 10 12 13 12 12 11 13 12 10 10 12 12 12 12 13
6 4 4 7 8 10 9 10 8 7 8 7 9 8 10 10 8 6 6 5 7 6 6 8 7 7 8 10 10 10 12 11 13 13 12 12 11 10 11 12 13 10 10 9
3 4 6 10 7 7 10 9 7 8 9 10 10 11 9 8 7 5 5 6 5 7 7 7 8 9 9 9 9 9 10 10 11 11 11 12 13 14 11 11 10 8 9 9
6 5 6 8 7 7 7 7 9 10 11 12 11 9 8 7 5 5 7 7 7 6 6 7 7 8 9 9 9 10 10 10 13 13 12 13 11 12 11 10 9 11 9 8
7 5 6 5 14 4 13 10 12 12 13 12 12 10 7 6 7 8 8 7 6 6 6 6 7 8 9 10 10 11 10 9 11 11 10 10 10 10 10 10 10 11 7 12
Wind_Direction
207 231 236 240 35 358 10 301 253 101 97 236 217 149 176 172 188 170 174 173 180 177 175 169 189 185 196 180 187 186 199 184 203 204 206 238 217 222 220 249 225 246 248 240
221 229 256 87 277 265 264 253 132 119 185 259 149 231 142 158 193 196 183 173 183 178 168 176 184 193 208 211 192 191 199 188 201 224 229 209 210 244 232 227 237 225 231 230
231 197 184 216 207 232 233 256 105 135 181 242 242 227 153 134 188 196 208 180 180 173 176 189 192 204 195 200 205 207 198 198 199 220 214 220 269 281 258 229 230 220 221 224
223 231 168 195 249 234 317 88 144 236 243 168 247 126 197 157 140 184 192 194 181 177 187 201 174 175 183 194 222 199 195 196 203 215 237 217 223 224 235 248 235 240 227 230
208 234 188 223 234 299 78 235 265 294 283 271 183 259 147 164 143 145 168 188 201 183 187 198 167 168 173 164 188 201 168 197 239 199 236 248 227 251 228 232 246 239 219 228
230 221 183 214 239 216 313 218 215 234 245 259 152 270 33 330 115 126 137 183 227 198 168 198 197 191 223 260 209 164 144 174 192 215 224 238 267 268 267 266 289 222 232 224
228 216 209 231 219 188 227 247 217 218 271 10 234 271 86 198 94 117 137 143 160 209 146 191 197 208 174 151 137 123 122 147 183 215 219 234 248 253 262 258 269 307 205 239
204 215 188 184 245 212 211 253 285 303 280 180 156 345 108 46 109 120 132 135 129 145 124 151 160 167 138 118 107 107 102 119 142 173 206 228 260 255 262 270 314 289 285 204
189 220 183 208 204 244 216 241 289 311 220 246 179 345 156 147 124 134 134 134 142 126 135 113 109 125 113 122 110 96 100 96 135 164 200 234 239 266 303 315 301 281 281 273
191 215 187 211 209 252 268 296 209 221 252 243 97 335 147 174 151 136 142 142 133 112 113 111 98 103 109 104 103 96 88 71 19 282 204 216 344 276 292 296 292 295 298 291
243 217 163 195 196 224 202 244 260 273 271 203 225 91 53 6 142 140 138 139 145 139 126 123 111 113 110 104 109 108 90 84 219 67 9 35 19 351 266 265 248 251 262 270
241 215 168 197 204 221 251 208 232 219 123 356 305 141 205 342 64 138 134 143 134 135 136 128 115 105 96 84 56 59 28 9 358 359 301 310 303 306 301 301 296 295 315 288
229 238 164 168 174 208 249 252 275 92 234 181 209 156 123 119 97 113 125 126 121 120 103 65 69 62 47 79 52 20 27 12 4 343 352 351 336 332 329 303 286 288 311 300
252 241 166 111 320 184 218 156 255 300 298 213 81 196 114 101 107 113 121 127 146 150 69 97 96 71 80 42 50 35 358 358 355 348 342 337 346 340 330 326 318 312 307 303
239 242 129 164 237 84 352 260 158 295 334 333 355 55 85 65 98 122 134 115 127 110 91 102 80 61 68 65 350 25 357 347 341 336 328 346 336 332 328 321 320 313 307 295
219 224 204 152 198 180 200 117 327 347 323 296 314 64 81 98 105 130 122 123 125 116 104 93 139 171 26 359 0 8 348 341 347 336 339 344 344 339 332 333 327 318 309 302
213 178 200 214 208 222 236 184 170 23 308 355 327 82 118 123 119 129 135 135 125 123 109 72 43 26 360 351 7 1 334 337 347 351 357 359 351 340 333 328 326 315 311 304
213 222 189 234 185 220 79 75 70 0 25 333 95 126 137 131 127 138 145 132 121 102 69 41 19 357 354 3 5 356 348 360 353 346 356 343 340 331 326 326 321 316 311 310
197 207 219 143 200 132 149 144 153 193 131 147 124 140 130 140 129 127 101 99 91 72 37 14 11 349 10 9 6 356 5 0 2 354 344 340 331 329 331 328 323 319 319 312
204 203 222 224 263 305 99 113 103 85 265 122 131 154 157 163 217 126 137 115 83 52 29 3 355 4 17 18 3 1 8 358 358 349 342 337 337 327 320 315 316 315 312 305
198 194 220 156 248 115 119 132 128 233 91 132 141 155 164 185 55 111 124 106 70 37 33 355 13 21 22 18 9 359 358 7 351 343 332 329 333 331 328 328 326 327 321 315
177 213 226 166 44 255 139 146 58 97 140 127 135 140 136 108 122 114 101 72 49 32 24 15 20 26 14 18 3 360 8 2 342 335 329 334 329 328 317 323 330 327 317 311
200 56 44 42 18 120 110 81 111 118 123 140 133 125 124 143 130 116 92 74 59 34 34 29 15 21 18 16 3 354 15 352 345 339 335 331 332 328 334 331 329 321 321 317
103 358 82 151 175 129 95 105 107 123 126 119 129 128 143 128 131 119 91 79 79 58 44 26 12 17 13 6 357 359 6 353 352 346 346 349 343 346 340 334 335 336 327 323
62 157 126 97 114 114 123 126 125 121 124 121 121 123 114 120 105 113 108 93 83 63 46 33 20 15 11 2 353 357 11 350 346 338 350 359 352 347 349 350 347 338 336 330
162 164 220 336 141 201 150 144 138 136 132 128 120 114 96 105 113 109 106 98 83 62 45 32 21 17 8 2 356 359 354 351 339 336 355 349 344 349 356 351 348 333 328 320